Terminal Aerodrome Forecast
Issued by NWS

Home | Current Version | Previous Version | Graphics & Text | Print | Product List | Glossary On
Versions: 1 2 3 4 5 6 7 8 9 10 11 12 13 14 15 16 17 18 19 20 21 22 23 24 25 26 27 28 29 30 31
000
FTUS43 KLOT 232200 AAB
TAFGYY
TAF AMD
KGYY 232200Z 2322/2418 03012KT P6SM FEW150 BKN250
     FM240500 10006KT P6SM BKN070
     FM241100 13008KT P6SM BKN250
     FM241400 14013G20KT P6SM BKN200=

USA.gov is the U.S. government's official web portal to all federal, state and local government web resources and services.